This is the latest recevied weather packets stored in our database for station/object K6MBY. If no packets are shown the sender has not sent any weather packets the latest 10 day(s).
| Time | Temp. | Humidity | Pressure | Rain* | Wind** | Luminosity | Snow |
|---|---|---|---|---|---|---|---|
| 1777916160 | 19.44° C | 57% | 1014.4 hPa | 0 mm | - | 660 W/m² | - |
| 1777915858 | 18.89° C | 58% | 1014.5 hPa | 0 mm | - | 638 W/m² | - |
| 1777915553 | 18.89° C | 57% | 1014.4 hPa | 0 mm | - | 619 W/m² | - |
| 1777915250 | 18.89° C | 57% | 1014.4 hPa | 0 mm | - | 623 W/m² | - |
| 1777914947 | 19.44° C | 57% | 1014.5 hPa | 0 mm | - | 623 W/m² | - |
| 1777914644 | 19.44° C | 57% | 1014.5 hPa | 0 mm | - | 626 W/m² | - |
| 1777914339 | 18.89° C | 56% | 1014.6 hPa | 0 mm | - | 622 W/m² | - |
| 1777914038 | 19.44° C | 57% | 1014.4 hPa | 0 mm | - | 580 W/m² | - |
| 1777913733 | 19.44° C | 57% | 1014.5 hPa | 0 mm | - | 558 W/m² | - |
| 1777913430 | 19.44° C | 57% | 1014.6 hPa | 0 mm | - | 616 W/m² | - |
| 1777913127 | 19.44° C | 56% | 1014.3 hPa | 0 mm | - | 600 W/m² | - |
| 1777912823 | 18.89° C | 55% | 1014.4 hPa | 0 mm | - | 558 W/m² | - |
| 1777912519 | 18.89° C | 54% | 1014.5 hPa | 0 mm | - | 531 W/m² | - |
| 1777912216 | 18.89° C | 55% | 1014.4 hPa | 0 mm | - | 510 W/m² | - |
| 1777911912 | 18.89° C | 56% | 1014.3 hPa | 0 mm | - | 497 W/m² | - |
| 1777911608 | 18.89° C | 55% | 1014.6 hPa | 0 mm | - | 516 W/m² | - |
| 1777911304 | 18.89° C | 56% | 1014.4 hPa | 0 mm | - | 520 W/m² | - |
| 1777911002 | 18.89° C | 57% | 1014.4 hPa | 0 mm | - | 499 W/m² | - |
| 1777910700 | 19.44° C | 53% | 1014.4 hPa | 0 mm | - | 462 W/m² | - |
| 1777910396 | 19.44° C | 53% | 1014.5 hPa | 0 mm | - | 427 W/m² | - |
| 1777910093 | 18.89° C | 54% | 1014.3 hPa | 0 mm | - | 422 W/m² | - |
| 1777909790 | 18.89° C | 54% | 1014.1 hPa | 0 mm | - | 400 W/m² | - |
| 1777909487 | 18.89° C | 55% | 1014.2 hPa | 0 mm | - | 366 W/m² | - |
| 1777909184 | 19.44° C | 54% | 1014 hPa | 0 mm | - | 292 W/m² | - |
| 1777908882 | 19.44° C | 53% | 1014 hPa | 0 mm | - | 364 W/m² | - |
* Rain latest hour (hover to see other rain measurements)
** Current wind speed in m/s (hover to see current wind gust speed)